User: anonymous   Login
Location: Unspecified
(0.0000°N, 0.0000°E)
Time: 06:56:40
(UTC+00:00)
Language:

IGS 5A - Orbit

View from above orbital plane
View from above orbital plane
View from above satellite
View from above satellite

Ground track
Ground track

The orbit data is extracted from the following two-line orbital elements,

1 36104U 09066A   24097.35164111 0.00003500  00000-0  29765-3 0    02
2 36104  97.4187 119.3483 0002124 137.6360 222.3638 14.97905818    04
Epoch (UTC): 06 April 2024 08:26:21
Eccentricity: 0.0002124
inclination: 97.4187°
perigee height: 572 km
apogee height: 575 km
right ascension of ascending node: 119.3483°
argument of perigee: 137.6360°
revolutions per day: 14.97905818
mean anomaly at epoch: 222.3638°
orbit number at epoch: 0

The dashed part of the orbit path shows where the satellite is in the earth's shadow,  

DLR